Location: Aranbee
(34.0885°N, 118.2342°W)
Time: 19:02:59
(UTC+00:00)

S-56A Canister/Altair - Pass Details

Date: 29 July 2021
Orbit: 632 x 2500 km, 38.9° (Epoch: 17 September)

Event Time Altitude Azimuth Distance (km) Brightness Sun altitude
Rises 07:27:02 0° 287° (WNW) 5,692 12.3 -36.7°
Reaches altitude 10° 07:32:25 10° 273° (W) 4,365 11.4 -36.9°
Enters shadow 07:37:05 18° 252° (WSW) 3,437 10.7 -37.0°
